CAPE
0 0 0 0 0 0 0 0 0 0 0 0 0 0 0 0 0 0 0 0 0 0 0 0 0 0 0 0 0 0 0 0 0 5 18 37 50 88 30 39 23 40 258 740 1749
0 0 0 0 0 0 0 0 0 0 0 0 0 0 0 0 0 0 0 0 0 0 0 0 0 0 0 0 0 0 0 0 13 38 8 33 48 98 71 21 43 82 516 1074 2084
0 0 0 0 0 0 0 0 0 0 0 0 0 0 0 0 0 0 0 0 0 0 0 0 0 0 0 0 0 0 0 0 0 0 1 36 69 133 91 44 91 36 478 1382 1982
0 0 0 0 0 0 0 0 0 0 0 0 0 0 0 0 0 0 0 0 0 0 0 0 0 0 0 0 0 0 0 0 0 0 0 0 46 135 144 98 0 175 685 1347 1619
0 0 0 0 0 0 0 0 0 0 0 0 0 0 0 0 0 0 0 0 0 0 0 0 0 0 0 0 0 0 0 0 0 0 0 0 0 19 50 83 72 538 943 1193 1391
0 0 0 0 0 0 0 0 0 0 0 0 0 0 0 0 0 0 0 0 0 0 0 0 0 0 0 0 0 0 0 0 0 0 0 0 0 4 130 267 475 708 1009 1298 1151
0 0 0 0 0 0 0 0 0 0 0 0 0 0 0 0 0 0 0 0 0 0 0 0 0 0 0 0 0 0 0 0 0 0 0 0 0 0 390 678 711 902 1248 1434 1304
0 0 0 0 0 0 0 0 0 0 0 0 0 0 0 0 0 0 0 0 0 0 0 0 0 0 0 0 0 0 0 0 0 0 0 0 0 0 883 922 946 1203 1489 1456 1106
0 0 0 0 0 0 0 0 0 0 0 0 0 0 0 0 0 0 0 0 0 0 0 0 0 0 0 0 0 0 0 0 0 0 0 0 0 19 1220 1385 1185 1374 1543 1620 1367
0 0 0 0 0 0 0 0 0 0 0 0 0 0 0 0 0 0 0 0 0 0 0 0 0 0 0 0 0 0 0 0 0 0 0 0 0 55 822 1166 1067 1322 1488 1580 1310
0 0 0 0 0 0 0 0 0 0 0 0 0 0 0 0 0 0 0 0 0 0 0 0 0 0 0 0 0 0 0 0 0 0 0 0 0 109 472 846 928 1224 1420 1447 1023
0 0 0 0 0 0 0 0 0 0 0 0 0 0 0 0 0 0 0 0 0 0 0 0 0 0 0 0 0 0 0 0 0 0 0 0 0 76 401 554 745 1008 1153 1151 588
0 0 0 0 0 0 0 0 0 0 0 0 0 0 0 0 0 0 0 0 0 0 0 0 0 0 0 0 0 0 0 0 0 0 0 0 0 0 33 251 571 622 277 9 104
0 0 0 0 0 0 0 0 0 0 0 0 0 0 0 0 0 0 0 0 0 0 0 0 0 0 0 0 0 0 0 0 0 0 0 0 0 0 0 4 165 430 246 78 18
0 0 0 0 0 0 0 0 0 0 0 0 0 0 0 0 0 0 0 0 0 0 0 0 0 0 0 0 0 0 0 0 0 0 0 0 0 0 0 0 0 172 246 9 54
0 0 0 0 0 0 0 0 0 0 0 0 0 0 0 0 0 0 0 0 0 0 0 0 0 0 0 0 0 0 0 0 0 0 0 0 0 0 0 0 0 0 105 0 3
0 0 0 0 0 0 0 0 0 0 0 0 0 0 0 0 0 0 0 0 0 0 0 0 0 0 0 0 0 0 0 0 0 0 0 0 0 0 0 6 10 20 0 11 61
0 0 0 0 0 0 0 0 0 0 0 0 0 0 0 0 0 0 0 0 0 0 0 0 0 0 0 0 0 0 0 0 0 0 0 0 0 0 45 37 178 42 0 100 797
0 0 0 0 0 0 0 0 0 0 0 0 0 0 0 0 0 0 0 0 0 0 0 0 0 0 0 0 0 0 0 0 0 0 0 0 0 0 68 405 74 19 56 456 968
0 0 0 0 0 0 0 0 0 0 0 0 0 0 0 0 0 0 0 0 0 0 0 0 0 0 0 0 0 0 0 0 0 0 0 0 0 0 3 298 218 144 158 653 739
0 0 0 0 0 0 0 0 0 0 0 0 0 0 0 0 0 0 0 0 0 0 0 0 0 0 0 0 0 0 0 0 0 0 0 0 0 0 21 142 309 219 464 1107 536
0 0 0 0 0 0 0 0 0 0 0 0 0 0 0 0 0 0 0 0 0 0 0 0 0 0 0 0 0 0 0 0 0 0 0 0 0 0 2 164 934 493 952 1180 23
0 0 0 0 0 0 0 0 0 0 0 0 0 0 0 0 0 0 0 0 0 0 0 0 0 0 0 0 0 0 0 0 0 0 0 0 0 0 122 196 808 1265 1297 579 118
0 0 0 0 0 0 0 0 0 0 0 0 0 0 0 0 0 0 0 0 0 0 0 0 0 0 0 0 0 0 0 0 0 0 0 0 0 0 4 191 342 634 1359 1275 409
0 0 0 0 0 0 0 0 0 0 0 0 0 0 0 0 0 0 0 0 0 0 0 0 0 0 0 0 0 0 4 0 0 0 8 8 2 0 0 89 248 512 1120 1125 865
0 0 0 0 0 0 0 0 0 0 0 0 0 0 0 0 0 0 0 0 0 0 0 0 0 0 0 0 0 0 0 1 31 1 0 0 0 0 0 83 275 634 1152 1109 997
0 0 0 0 0 0 0 0 0 0 0 0 0 0 0 0 0 0 0 0 0 0 0 0 1 0 0 0 0 0 7 28 84 60 53 55 21 14 16 91 163 147 788 989 800
CIN
-0 -0 -0 -0 -0 -0 -0 -0 -0 -0 -0 -0 -0 -0 -0 -0 -0 -0 -0 -0 -0 -0 -0 -0 -0 -0 -0 -0 -0 -0 -0 -0 -8 -121 -105 -149 -113 -222 -270 -203 -262 -278 -227 -212 -162
-0 -0 -0 -0 -0 -0 -0 -0 -0 -0 -0 -0 -0 -0 -0 -0 -0 -0 -0 -0 -0 -0 -0 -0 -0 -0 -0 -0 -0 -0 -0 -0 -156 -180 -94 -129 -107 -111 -154 -203 -183 -197 -250 -241 -139
-0 -0 -0 -0 -0 -0 -0 -0 -0 -0 -0 -0 -0 -0 -0 -0 -0 -0 -0 -0 -0 -0 -0 -0 -0 -0 -0 -0 -0 -0 -0 -0 -0 -0 -72 -165 -135 -162 -142 -115 -151 -158 -223 -218 -159
-0 -0 -0 -0 -0 -0 -0 -0 -0 -0 -0 -0 -0 -0 -0 -0 -0 -0 -0 -0 -0 -0 -0 -0 -0 -0 -0 -0 -0 -0 -0 -0 -0 -0 -0 -0 -174 -138 -151 -89 -0 -181 -236 -237 -179
-0 -0 -0 -0 -0 -0 -0 -0 -0 -0 -0 -0 -0 -0 -0 -0 -0 -0 -0 -0 -0 -0 -0 -0 -0 -0 -0 -0 -0 -0 -0 -0 -0 -0 -0 -0 -0 -160 -176 -217 -225 -261 -265 -245 -196
-0 -0 -0 -0 -0 -0 -0 -0 -0 -0 -0 -0 -0 -0 -0 -0 -0 -0 -0 -0 -0 -0 -0 -0 -0 -0 -0 -0 -0 -0 -0 -0 -0 -0 -0 -0 -0 -224 -208 -260 -251 -261 -242 -263 -225
-0 -0 -0 -0 -0 -0 -0 -0 -0 -0 -0 -0 -0 -0 -0 -0 -0 -0 -0 -0 -0 -0 -0 -0 -0 -0 -0 -0 -0 -0 -0 -0 -0 -0 -0 -0 -0 -0 -218 -258 -234 -247 -254 -231 -233
-0 -0 -0 -0 -0 -0 -0 -0 -0 -0 -0 -0 -0 -0 -0 -0 -0 -0 -0 -0 -0 -0 -0 -0 -0 -0 -0 -0 -0 -0 -0 -0 -0 -0 -0 -0 -0 -0 -268 -222 -230 -256 -234 -218 -215
-0 -0 -0 -0 -0 -0 -0 -0 -0 -0 -0 -0 -0 -0 -0 -0 -0 -0 -0 -0 -0 -0 -0 -0 -0 -0 -0 -0 -0 -0 -0 -0 -0 -0 -0 -0 -0 -287 -310 -240 -202 -210 -211 -177 -199
-0 -0 -0 -0 -0 -0 -0 -0 -0 -0 -0 -0 -0 -0 -0 -0 -0 -0 -0 -0 -0 -0 -0 -0 -0 -0 -0 -0 -0 -0 -0 -0 -0 -0 -0 -0 -0 -280 -291 -270 -220 -216 -214 -167 -218
-0 -0 -0 -0 -0 -0 -0 -0 -0 -0 -0 -0 -0 -0 -0 -0 -0 -0 -0 -0 -0 -0 -0 -0 -0 -0 -0 -0 -0 -0 -0 -0 -0 -0 -0 -0 -0 -219 -268 -273 -236 -226 -229 -165 -246
-0 -0 -0 -0 -0 -0 -0 -0 -0 -0 -0 -0 -0 -0 -0 -0 -0 -0 -0 -0 -0 -0 -0 -0 -0 -0 -0 -0 -0 -0 -0 -0 -0 -0 -0 -0 -0 -278 -319 -333 -300 -250 -216 -169 -299
-0 -0 -0 -0 -0 -0 -0 -0 -0 -0 -0 -0 -0 -0 -0 -0 -0 -0 -0 -0 -0 -0 -0 -0 -0 -0 -0 -0 -0 -0 -0 -0 -0 -0 -0 -0 -0 -0 -337 -449 -354 -365 -401 -299 -377
-0 -0 -0 -0 -0 -0 -0 -0 -0 -0 -0 -0 -0 -0 -0 -0 -0 -0 -0 -0 -0 -0 -0 -0 -0 -0 -0 -0 -0 -0 -0 -0 -0 -0 -0 -0 -0 -0 -0 -37 -379 -370 -372 -332 -372
-0 -0 -0 -0 -0 -0 -0 -0 -0 -0 -0 -0 -0 -0 -0 -0 -0 -0 -0 -0 -0 -0 -0 -0 -0 -0 -0 -0 -0 -0 -0 -0 -0 -0 -0 -0 -0 -0 -0 -0 -0 -292 -333 -376 -363
-0 -0 -0 -0 -0 -0 -0 -0 -0 -0 -0 -0 -0 -0 -0 -0 -0 -0 -0 -0 -0 -0 -0 -0 -0 -0 -0 -0 -0 -0 -0 -0 -0 -0 -0 -0 -0 -0 -0 -0 -0 -0 -288 -0 -316
-0 -0 -0 -0 -0 -0 -0 -0 -0 -0 -0 -0 -0 -0 -0 -0 -0 -0 -0 -0 -0 -0 -0 -0 -0 -0 -0 -0 -0 -0 -0 -0 -0 -0 -0 -0 -0 -0 -0 -227 -278 -234 -0 -325 -356
-0 -0 -0 -0 -0 -0 -0 -0 -0 -0 -0 -0 -0 -0 -0 -0 -0 -0 -0 -0 -0 -0 -0 -0 -0 -0 -0 -0 -0 -0 -0 -0 -0 -0 -0 -0 -0 -0 -316 -403 -276 -297 -0 -258 -188
-0 -0 -0 -0 -0 -0 -0 -0 -0 -0 -0 -0 -0 -0 -0 -0 -0 -0 -0 -0 -0 -0 -0 -0 -0 -0 -0 -0 -0 -0 -0 -0 -0 -0 -0 -0 -0 -0 -302 -204 -309 -243 -237 -187 -204
-0 -0 -0 -0 -0 -0 -0 -0 -0 -0 -0 -0 -0 -0 -0 -0 -0 -0 -0 -0 -0 -0 -0 -0 -0 -0 -0 -0 -0 -0 -0 -0 -0 -0 -0 -0 -0 -0 -103 -146 -232 -194 -211 -213 -211
-0 -0 -0 -0 -0 -0 -0 -0 -0 -0 -0 -0 -0 -0 -0 -0 -0 -0 -0 -0 -0 -0 -0 -0 -0 -0 -0 -0 -0 -0 -0 -0 -0 -0 -0 -0 -0 -0 -100 -114 -126 -172 -253 -189 -236
-0 -0 -0 -0 -0 -0 -0 -0 -0 -0 -0 -0 -0 -0 -0 -0 -0 -0 -0 -0 -0 -0 -0 -0 -0 -0 -0 -0 -0 -0 -0 -0 -0 -0 -0 -0 -0 -0 -49 -192 -219 -238 -247 -229 -370
-0 -0 -0 -0 -0 -0 -0 -0 -0 -0 -0 -0 -0 -0 -0 -0 -0 -0 -0 -0 -0 -0 -0 -0 -0 -0 -0 -0 -0 -0 -0 -0 -0 -0 -0 -0 -0 -0 -229 -224 -255 -193 -206 -266 -387
-0 -0 -0 -0 -0 -0 -0 -0 -0 -0 -0 -0 -0 -0 -0 -0 -0 -0 -0 -0 -0 -0 -0 -0 -0 -0 -0 -0 -0 -0 -0 -0 -0 -0 -0 -0 -0 -0 -35 -175 -280 -292 -241 -223 -332
-0 -0 -0 -0 -0 -0 -0 -0 -0 -0 -0 -0 -0 -0 -0 -0 -0 -0 -0 -0 -0 -0 -0 -0 -0 -0 -0 -0 -0 -0 -49 -0 -0 -0 -37 -74 -78 -0 -0 -133 -272 -298 -293 -252 -242
-0 -0 -0 -0 -0 -0 -0 -0 -0 -0 -0 -0 -0 -0 -0 -0 -0 -0 -0 -0 -0 -0 -0 -0 -0 -0 -0 -0 -0 -0 -0 -24 -91 -73 -0 -0 -0 -0 -0 -381 -354 -267 -283 -256 -220
-0 -0 -0 -0 -0 -0 -0 -0 -0 -0 -0 -0 -0 -0 -0 -0 -0 -0 -0 -0 -0 -0 -0 -0 -14 -0 -0 -0 -0 -0 -69 -63 -47 -66 -64 -34 -72 -248 -284 -360 -330 -427 -320 -254 -214
Wind_Speed
18 18 18 18 19 18 18 18 18 18 17 17 17 17 17 17 17 16 18 15 15 18 13 14 20 16 17 19 18 20 15 17 18 17 15 15 15 16 17 16 15 15 15 15 20
20 20 20 20 20 20 20 20 20 20 20 19 19 19 19 18 17 19 18 18 19 17 13 14 8 9 11 19 17 15 14 17 17 13 11 12 12 12 14 13 11 12 14 17 19
21 21 21 21 21 21 21 21 21 21 21 21 20 19 19 18 14 15 10 17 17 16 11 11 11 8 8 16 15 15 13 14 12 9 8 8 8 11 9 7 8 9 12 15 16
22 22 23 23 23 23 23 23 23 23 22 21 21 20 19 15 14 15 10 11 11 13 10 9 10 8 7 8 11 12 13 11 13 7 8 8 9 9 7 6 11 10 13 15 15
23 24 24 24 24 25 25 25 25 24 23 22 21 19 16 16 15 15 9 8 8 8 8 10 9 10 11 12 16 10 6 13 12 10 7 8 6 7 5 7 9 12 15 15 15
25 25 26 26 27 27 27 27 27 26 25 23 20 18 16 16 15 10 9 8 8 7 6 8 12 16 19 14 13 17 23 20 10 5 15 12 7 7 8 11 12 13 13 15 14
26 27 27 28 28 29 29 29 29 28 25 21 19 17 17 18 14 8 8 8 9 6 6 12 15 18 19 19 17 21 23 24 23 19 15 14 10 5 9 11 11 11 13 13 13
27 28 29 29 30 30 30 30 29 26 20 17 17 16 18 17 10 7 9 10 11 10 13 16 17 18 19 20 19 17 16 19 16 22 19 16 7 8 8 10 10 9 12 11 11
28 29 30 30 31 31 31 30 24 19 15 15 17 16 18 13 11 8 8 10 9 10 16 19 17 16 18 18 18 18 12 16 21 19 18 17 16 10 8 7 7 7 9 9 8
29 30 30 31 31 31 31 24 20 19 18 18 18 18 16 14 12 7 8 6 10 9 14 14 15 16 16 14 15 13 12 13 16 18 18 14 10 11 7 7 7 6 6 7 8
29 30 31 31 31 29 26 21 22 21 21 21 17 17 17 17 11 10 8 6 11 12 12 15 15 12 14 12 14 17 16 15 14 19 18 18 15 10 7 4 4 4 4 6 5
29 30 30 30 30 26 19 17 17 22 25 26 29 27 26 17 16 11 5 9 13 14 13 16 18 19 17 16 17 17 19 20 21 20 18 18 14 13 9 4 3 1 3 4 7
29 29 30 30 28 19 19 17 21 17 23 25 21 21 22 11 17 12 1 10 12 14 14 15 16 9 16 18 15 17 17 18 18 21 17 16 18 14 11 6 3 0 5 6 4
29 29 29 29 19 21 19 22 23 16 23 22 19 19 14 11 18 11 3 10 14 14 14 19 20 20 19 19 15 18 14 19 21 19 20 19 22 22 17 10 4 1 3 4 7
29 29 28 24 24 20 20 25 20 17 24 18 18 16 12 10 12 14 11 13 12 12 13 17 17 15 17 17 14 17 22 23 20 17 19 19 20 18 22 20 8 4 6 6 9
31 30 28 21 23 22 23 23 16 22 26 18 15 15 12 17 15 12 11 14 15 18 21 23 21 21 20 21 21 27 20 21 18 18 20 18 18 20 19 18 20 14 6 5 9
34 32 28 22 21 19 23 16 22 25 21 21 18 19 16 16 17 15 12 13 17 20 25 25 27 24 23 26 20 19 20 23 21 20 19 18 20 18 19 18 14 14 11 10 9
34 31 22 22 19 19 17 19 27 23 25 22 21 21 18 15 18 17 14 15 17 19 22 25 27 18 16 17 16 15 15 17 21 19 19 21 21 21 19 19 10 12 9 12 15
31 23 22 21 19 18 19 26 26 23 22 24 22 19 20 17 16 16 16 17 19 15 19 19 21 17 17 16 11 14 17 16 16 19 22 22 22 25 18 16 13 10 11 13 13
25 22 20 20 10 16 22 28 24 21 22 20 22 20 22 21 19 16 13 18 22 18 18 21 28 21 18 13 17 15 11 18 16 19 19 20 20 20 17 12 11 10 9 10 11
20 18 20 13 13 19 26 26 24 22 19 20 20 22 21 21 20 19 17 18 14 15 11 17 23 25 19 18 14 13 16 17 14 16 16 18 19 13 10 7 7 8 8 9 10
19 20 15 13 19 22 25 22 22 23 21 21 19 21 21 21 21 20 20 18 16 19 18 17 21 26 23 20 20 18 20 16 17 19 17 18 22 19 16 11 4 5 6 9 10
17 17 14 16 23 25 25 24 23 23 23 21 22 19 19 21 22 21 20 17 18 21 19 15 23 26 26 22 17 15 13 16 16 16 16 19 26 23 17 7 6 4 7 7 8
17 18 17 17 17 20 23 24 24 21 23 23 24 22 23 25 22 23 22 20 22 22 23 15 22 24 27 23 17 13 12 11 14 19 18 16 22 20 9 3 2 5 7 6 5
18 19 18 22 22 20 21 23 24 24 21 20 21 21 24 26 26 25 25 25 24 20 20 18 25 23 26 25 21 19 13 13 17 16 18 19 18 22 3 8 6 6 7 6 8
19 19 19 20 21 22 23 24 23 23 23 24 24 27 26 26 25 26 26 26 24 22 23 22 24 21 23 21 16 18 17 13 15 17 20 22 26 19 17 3 4 5 11 10 10
18 18 20 22 23 23 23 23 23 23 22 22 25 27 28 24 30 34 32 33 31 27 25 25 23 21 23 19 15 20 18 15 16 15 19 24 23 24 17 4 6 8 10 11 13
Wind_Direction
304 303 304 303 303 303 300 298 297 293 287 283 281 273 267 268 265 290 195 138 116 150 63 85 203 239 221 139 114 104 30 52 87 89 84 70 64 49 57 61 75 94 76 85 100
305 304 304 302 300 303 301 300 296 292 291 289 286 280 280 285 299 238 179 169 152 98 61 78 317 304 292 129 104 68 24 73 119 106 91 71 74 72 62 69 77 90 73 86 100
304 305 303 301 299 298 298 299 294 293 289 293 293 288 292 299 311 308 314 115 103 98 3 40 275 330 329 109 99 82 32 89 133 138 110 96 103 72 73 85 93 94 80 104 100
302 304 302 299 299 296 296 294 293 291 287 291 292 295 294 315 309 318 351 77 66 85 349 19 304 344 351 17 50 93 133 120 69 115 105 112 93 82 118 124 78 91 104 111 109
302 302 301 300 296 296 295 294 292 287 285 285 289 299 315 302 303 314 40 22 15 33 23 37 30 307 307 314 300 13 139 206 225 236 106 93 124 76 99 116 66 85 113 115 113
302 301 301 300 297 296 296 293 290 288 283 283 291 300 309 298 310 7 43 29 6 3 21 0 296 273 260 304 323 293 245 240 223 107 27 35 56 92 70 81 68 95 118 121 122
301 301 300 300 298 296 295 292 289 285 283 290 296 307 300 293 314 18 22 1 327 338 15 300 290 271 270 284 309 294 299 296 334 358 10 21 24 52 64 85 87 96 121 123 133
301 300 299 298 297 295 294 293 291 289 299 305 302 308 293 298 334 351 339 327 308 301 286 282 295 287 283 277 300 319 338 324 2 357 9 24 27 43 85 95 96 98 115 116 138
301 300 299 297 295 294 293 293 299 310 314 310 303 305 294 314 308 322 337 326 326 297 280 276 295 304 296 302 304 317 346 337 329 359 17 22 21 38 62 70 91 103 112 116 93
302 300 298 296 294 293 292 301 303 303 298 298 295 296 296 304 308 315 320 344 313 307 299 303 303 305 306 316 312 327 334 350 346 1 7 20 30 29 59 91 115 113 107 112 57
301 299 297 295 292 292 298 300 290 287 287 279 291 289 289 282 307 301 304 317 308 302 308 301 303 313 313 316 316 318 325 337 351 352 2 2 10 32 45 91 137 145 108 130 70
300 298 296 293 289 287 305 303 305 287 279 273 261 265 259 283 288 295 308 299 289 291 305 303 300 294 298 304 308 313 312 318 326 348 357 359 8 10 22 31 168 128 124 128 39
298 297 295 292 285 290 294 306 303 309 285 275 276 275 267 285 280 282 289 295 298 293 296 300 311 331 305 302 313 315 320 326 336 342 358 1 352 7 14 20 164 64 18 19 76
296 294 294 292 289 288 285 294 301 312 279 278 280 283 280 282 282 285 280 301 298 297 298 295 291 290 297 297 313 315 338 334 331 340 339 348 333 348 3 13 23 59 105 78 62
292 292 290 287 276 281 285 287 301 307 268 289 286 290 290 271 298 278 276 285 295 300 305 299 307 303 300 303 318 315 323 322 329 335 339 338 337 352 352 3 36 71 136 42 40
292 290 288 291 287 281 284 285 297 273 261 282 292 290 291 272 281 301 278 288 297 292 292 291 297 297 296 295 302 299 319 325 328 329 326 335 337 340 354 1 4 24 93 61 39
292 287 284 289 281 287 281 283 263 260 278 275 282 289 290 282 272 284 276 272 281 288 288 294 291 293 291 289 298 304 311 310 313 318 323 336 332 338 344 355 15 24 56 81 77
292 287 289 280 284 284 274 264 257 268 265 281 285 286 285 289 276 277 279 275 282 290 295 294 293 303 306 287 293 299 309 307 311 319 321 324 321 333 341 340 32 25 58 81 104
294 292 284 277 271 274 256 255 261 266 277 277 283 286 282 285 291 277 279 283 284 279 287 296 298 310 310 305 297 297 299 317 318 319 311 315 321 328 344 354 17 59 82 111 97
295 286 281 283 269 264 253 257 265 273 280 286 275 286 277 280 280 284 292 304 284 278 279 290 287 300 314 302 296 291 315 306 314 308 308 319 328 337 346 15 40 84 88 103 104
298 281 288 279 267 255 255 261 266 275 287 284 283 280 282 282 284 283 289 295 306 306 293 289 285 287 300 295 291 289 303 311 310 309 315 323 334 356 4 40 75 110 110 110 92
293 274 289 276 258 261 260 266 274 273 282 284 288 283 282 287 285 283 281 280 304 306 296 288 287 281 281 290 293 288 298 305 297 295 310 319 321 336 333 351 54 75 115 113 54
289 282 284 286 260 260 265 267 272 274 277 279 279 284 287 283 282 279 278 283 293 299 295 292 279 277 276 289 299 297 307 305 304 304 302 308 308 329 336 4 36 80 127 110 33
292 274 275 274 278 269 267 267 268 279 278 276 275 281 280 275 276 277 275 281 289 293 292 293 283 278 274 281 304 291 301 319 317 304 304 313 320 331 1 146 65 61 109 112 59
295 280 275 264 266 273 273 271 269 269 277 281 274 277 277 273 275 273 273 277 284 294 298 291 283 284 278 282 285 289 296 307 309 312 311 313 322 323 128 170 142 93 81 70 103
289 282 281 273 272 269 270 269 270 271 272 271 272 275 275 273 277 276 277 276 280 287 291 291 286 292 287 287 285 284 289 297 308 308 306 306 300 328 340 54 62 88 123 122 118
301 293 281 275 271 268 268 269 271 275 276 273 279 276 274 276 278 272 274 269 272 281 286 286 284 283 280 286 292 285 286 292 301 313 309 300 312 314 323 78 111 113 125 125 122